Tallevast, FL

4:06 AM EST on February 14, 2016 (GMT -0500)
Sarasota-bradenton

Weather History for KSRQ - March, 2012

Change the Weather History Date:

Thursday, March 8, 2012

  Actual Average Record
Temperature  
Mean Temperature 76 °F 66 °F  
Max Temperature 87 °F 75 °F 88 °F (1921)
Min Temperature 64 °F 56 °F 35 °F (1962)
Degree Days  
Heating Degree Days 0 2  
Month to date heating degree days 7 21  
Since 1 July heating degree days 205 439  
Cooling Degree Days 11 3  
Month to date cooling degree days 49 24  
Year to date cooling degree days 228 128  
Growing Degree Days 25 (Base 50)    
Moisture  
Dew Point 62 °F    
Average Humidity 70    
Maximum Humidity 93    
Minimum Humidity 40    
Precipitation  
Precipitation 0.00 in 0.15 in 2.78 in (1983)
Month to date precipitation T 1.07  
Year to date precipitation 1.73 6.26  
Sea Level Pressure  
Sea Level Pressure 30.21 in    
Wind  
Wind Speed 10 mph (East)    
Max Wind Speed 23 mph    
Max Gust Speed 26 mph    
Visibility 10 miles    
Events      
T = Trace of Precipitation, MM = Missing Value Source: NWS Daily Summary

Daily Weather History Graph

Daily Weather History Graph

Search for Another Location

Airport or City:

Trip Planner

Search our weather history database for the weather conditions in past years. The results will help you decide how hot, cold, wet, or windy it might be!

Date:

Astronomy

Mar. 08, 2012 Rise Set
Actual Time 6:46 AM EST 6:35 PM EST
Civil Twilight 6:23 AM EST 6:58 PM EST
Nautical Twilight 5:56 AM EST 7:25 PM EST
Astronomical Twilight 5:29 AM EST 7:52 PM EST
Moon 7:11 PM EST (3/8) 6:36 AM EST (3/8)
Length of Visible Light 12h 35m
Length of Day
11h 48m
Full, 100% of the Moon is Illuminated
Mar 8
Full
Mar 14
Last Quarter
Mar 22
New
Mar 30
First Quarter
Apr 6
Full

Hourly Weather History & Observations

Time (EST) Temp. Heat Index Dew Point Humidity Pressure Visibility Wind Dir Wind Speed Gust Speed Precip Events Conditions
12:53 AM 66.2 °F - 62.6 °F 88% 30.26 in 10.0 mi East 11.5 mph - N/A   Clear
1:53 AM 64.9 °F - 61.0 °F 87% 30.25 in 10.0 mi East 8.1 mph - N/A   Clear
2:53 AM 64.0 °F - 61.0 °F 90% 30.23 in 10.0 mi ENE 6.9 mph - N/A   Clear
3:53 AM 64.0 °F - 61.0 °F 90% 30.21 in 10.0 mi ENE 8.1 mph - N/A   Clear
4:53 AM 64.0 °F - 61.0 °F 90% 30.22 in 10.0 mi East 9.2 mph - N/A   Clear
5:53 AM 64.0 °F - 61.0 °F 90% 30.23 in 10.0 mi East 8.1 mph - N/A   Clear
6:53 AM 64.0 °F - 62.1 °F 93% 30.25 in 10.0 mi East 8.1 mph - N/A   Clear
7:53 AM 66.0 °F - 63.0 °F 90% 30.26 in 10.0 mi East 11.5 mph - N/A   Clear
8:53 AM 73.0 °F - 64.9 °F 76% 30.25 in 10.0 mi East 11.5 mph 20.7 mph N/A   Clear
9:53 AM 78.1 °F - 64.0 °F 62% 30.26 in 10.0 mi ESE 19.6 mph - N/A   Clear
10:53 AM 82.0 °F 83.1 °F 63.0 °F 52% 30.26 in 10.0 mi East 17.3 mph 24.2 mph N/A   Partly Cloudy
11:53 AM 82.9 °F 83.7 °F 62.1 °F 49% 30.24 in 10.0 mi East 15.0 mph 21.9 mph N/A   Mostly Cloudy
12:53 PM 86.0 °F 86.1 °F 61.0 °F 43% 30.20 in 10.0 mi ESE 10.4 mph - N/A   Scattered Clouds
1:53 PM 84.9 °F 84.2 °F 57.9 °F 40% 30.17 in 10.0 mi ESE 13.8 mph - N/A   Scattered Clouds
2:53 PM 84.0 °F 84.0 °F 60.1 °F 44% 30.14 in 10.0 mi SE 15.0 mph - N/A   Mostly Cloudy
3:53 PM 79.0 °F - 66.0 °F 64% 30.14 in 10.0 mi West 9.2 mph - N/A   Partly Cloudy
4:53 PM 79.0 °F - 64.0 °F 60% 30.14 in 10.0 mi Variable 3.5 mph - N/A   Mostly Cloudy
5:53 PM 80.1 °F 81.1 °F 61.0 °F 52% 30.15 in 10.0 mi ESE 11.5 mph - N/A   Overcast
6:53 PM 77.0 °F - 62.1 °F 60% 30.16 in 10.0 mi ESE 8.1 mph - N/A   Mostly Cloudy
7:53 PM 75.9 °F - 63.0 °F 64% 30.17 in 10.0 mi ESE 6.9 mph - N/A   Mostly Cloudy
8:53 PM 73.9 °F - 64.0 °F 71% 30.19 in 10.0 mi ESE 11.5 mph - N/A   Partly Cloudy
9:53 PM 73.0 °F - 64.0 °F 73% 30.19 in 10.0 mi ESE 10.4 mph - N/A   Partly Cloudy
10:53 PM 72.0 °F - 64.0 °F 76% 30.19 in 10.0 mi ESE 6.9 mph - N/A   Partly Cloudy
11:53 PM 70.0 °F - 64.0 °F 81% 30.17 in 10.0 mi East 5.8 mph - N/A   Scattered Clouds